Location: Cathedral Gorge
(37.8167°N, 114.4167°W)
Time: 13:30:39
(UTC-07:00)

Envisat - Visible Passes

Search period start: 16 July 2018 00:00
Search period end: 26 July 2018 00:00
Orbit: 764 x 766 km, 98.2° (Epoch: 16 July)

Date Brightness Start Highest point End Pass type
(mag) Time Alt. Az. Time Alt. Az. Time Alt. Az.
16 Jul 4.8 20:36:12 10° SSW 20:40:42 32° W 20:45:14 10° NNW visible
18 Jul 5.6 21:03:05 10° SW 21:06:28 18° W 21:09:52 10° NW visible
19 Jul 4.4 20:24:44 10° SSW 20:29:30 41° W 20:34:17 10° NNW visible
21 Jul 5.3 20:51:15 10° SW 20:55:12 23° W 20:59:11 10° NW visible
22 Jul 3.9 20:13:22 10° S 20:18:17 53° W 20:23:16 10° NNW visible
23 Jul 5.8 21:18:58 10° WSW 21:21:01 12° W 21:23:05 10° WNW visible
24 Jul 4.9 20:39:36 10° SSW 20:43:58 29° W 20:48:22 10° NW visible
